ROMMA est une association bénévole à but non lucratif. Votre soutien est indispensable : ADHERER à ROMMA ou FAIRE un DON

Chambon - (38, Isère)

Oisans (2460 m)   Longitude: 06° 10' 42" E   Latitude: 45° 01' 32" N Station partenaire n°803
 

Détail journalier du     <<     >>

Température Humidité Vent Dir Rafale Dir. rafale Neige 1 Neige 2
Heure (°C) (%) (km/h) (km/h) (cm) (cm)
01:00 4.27524SSO59SSO03
02:00 3.78321SSO55SSO03
03:00 3.48718SSO43SSO03
04:00 3.48819SSO41SSO03
05:00 2.99220SSO50SSO03
06:00 2.59514S46SSO04
07:00 2.88924S71SSO04
08:00 3.18831SSO71SSO04
09:00 4.18421SSO55SSO04
10:00 4.87423SSO57SSO04
11:00 5.17430SSO73SSO04
12:00 6.06725S78SSO03
13:00 6.56521S64S04
14:00 6.07124S78SSO03
15:00 6.56318S75S02
16:00 5.47725SSO62SSO03
17:00 5.08022S60SSO03
18:00 4.09015SSE51SSE04
19:00 4.38423S62SSO03
20:00 4.48626S59S03
21:00 4.88127S66S03
22:00 5.27425S77SSO04
23:00 6.06428SSO79SSO04
minuit 6.06040SSO90SSO03

Graphique du 19-10-2019

 

Serveur OMMA